Погода Хмельницкий

Погода Хмельницкий : погода сейчас, прогноз погоды и архив. Всё, что Вы хотите узнать о погоде Хмельницкий!

Хотите узнать прогноз погоды Хмельницкий? Тогда Вам сюда: Погода Хмельницкий

Поиск расширенной информации на нашем сайте:

Другие новости

Новости СМИ2

Главная страница сайта

Новости сайта

03.07.2017

Напоминаем, что на нашем специализированном сайте Метеоцентр.Азия вы можете получить высокодетализированные автоматические прогнозы погоды по пунктам России, СНГ и мира в авиационном формате (включающие направление и скорость ветра, видимость, явления погоды, количество и форму облачности, нижнюю и верхнюю границу облачности).


Погода Хмельницкий - сегодня

Время (UTC), дата Ветер
(°,м/с) 
Видим.   Явления Облачность Т
(°С)
Тd
(°С)
f(%) Тe
(°С)
Pmin
(гПа)
dP
(гПа)
Po
(мм)
O2
(г/м3)
Тmin Tmax R s Состояние
почвы
21 17.04.18 320 (СЗ) 10 км    8/0 верхняя 
[Ci fib]
+14.4 +10 75 +15  1021.8  1.7  736  280           
00 18.04.18 330 (СЗ) 10 км    8/5 800 м верхняя 
[Sc|Ci fib]
+12 +8.6 80 +10  1023.3  736  283           
03 18.04.18 320 (СЗ) 10 км  {ливн. осадки}  9/6 900 м кучево-дожд., средняя 
[Cb calv|Ac trans]
+10.9 +8.9 87 +9  1025.2  1.7  738  284           
06 18.04.18 330 (СЗ) 20000 м  {ливн. осадки}  9/9 600 м кучево-дожд. 
[Cb calv]
+10.4 +6.6 77 +9  1027.2  1.8  739  286  +9    0.0     
09 18.04.18 320 (СЗ) 20000 м    6/0 верхняя 
[Ci fib]
+15 +5.7 54 +15  1026.6  0.1  739  281           
12 18.04.18 300 (СЗ) 20000 м    9/5 800 м верхняя 
[Cu hum|Ci fib]
+17.8 +3.9 40 +17  1025.5  -0.7  738  279           
15 18.04.18 310 (СЗ) 20000 м    5/3 1000 м верхняя 
[Cu hum|Ci fib]
+17.4 +4.5 42 +17  1024  -1.5  737  279           
18 18.04.18 310 (СЗ) 10 км    ясно 
+14 +3.5 49 +14  1024.6  0.1  737  282    +17.8       
21 18.04.18 320 (СЗ) 10 км    ясно 
+11.2 +4.1 62 +10  1025.3  0.3  738  285           
00 19.04.18 300 (СЗ) 10 км    4/0 верхняя 
[Ci fib]
+9.3 +4.1 70 +8  1025.2  -0.4  737  287           
03 19.04.18 290 (З) 10 км    10/10 1200 м 
[Sc]
+10.3 +6.5 77 +9  1023.6  -1.3  736  285           
06 19.04.18 300 (СЗ) 10 км    6/3 600 м верхняя 
[Cu hum|Ci fib]
+13.8 +6.4 61 +13  1021.6  -1.5  735  281  +8.4         
09 19.04.18 330 (СЗ) 10  10 км    8/8 900 м 
[Cu hum]
+17.2 +5.3 45 +16  1019.8  -1.2  734  277           
12 19.04.18 330 (СЗ) 12-18{19}  20000 м    8/6 1000 м верхняя 
[Cu med, cong|Ci fib]
+18.7 +2 33 +18  1018  -1.6  733  276           
15 19.04.18 330 (СЗ) 12  20000 м    8/8 1080 м 
[Cu med, cong]
+17.5 +0.3 31 +17  1017.1  -1  732  277           
18 19.04.18 310 (СЗ) 7{19}  10 км    6/3 1000 м средняя 
[Sc|Ac trans]
+14.4 +1.8 42 +13  1017.4  -0.1  732  280           
21 19.04.18 360 (С) 10 км  {ливн. осадки}  4/0 средняя 
[Ac trans]
+10 +5.2 72 +8  1020  1.9  734  284           
00 20.04.18 350 (С) 6{20}  10 км  {ливн. осадки}  8/5 900 м средняя 
[Sc|Ac trans]
+7.4 +3.7 77 +5  1021.6  1.1  735  288           
03 20.04.18 330 (СЗ) 10 км    3/0 средняя 
[Ac trans]
+5.4 +3.5 88 +4  1022.7  0.8  735  290      340  597   
06 20.04.18 350 (С) 20000 м    5/3 600 м верхняя 
[Cu hum|Ci fib]
+8.6 +3.6 71 +6  1023.5  1.2  736  287  +5    0.5     
09 20.04.18 340 (С) 20000 м    8/6 840 м верхняя 
[Cu hum|Ci fib]
+13.4 +3.8 52 +12  1023.3  0.5  736  282           
12 20.04.18 340 (С) 20000 м    8/6 1000 м верхняя 
[Cu hum|Ci fib]
+15.2 +2.6 43 +15  1022.6  -0.4  736  281           
15 20.04.18 340 (С) 20000 м    8/4 1000 м верхняя 
[Cu hum|Ci fib]
+15.9 +0.5 35 +16  1021.8  -0.7  736  280           
18 20.04.18 320 (СЗ) 10 км    3/0 верхняя 
[Ci fib]
+11.9 +2.6 53 +12  1022.6  0.2  736  284    +17.6       
21 20.04.18 300 (СЗ) 10 км    ясно 
+10.1 +3.3 63 +10  1022.7  -0.2  736  285           
Время (UTC), дата Ветер
(°,м/с) 
Видим.   Явления Облачность Т
(°С)
Тd
(°С)
f(%) Тe
(°С)
Pmin
(гПа)
dP
(гПа)
Po
(мм)
O2
(г/м3)
Тmin Tmax R s Состояние
почвы

Для получения пояснительной информации подведите курсор к названию столбца.

ПОГОДА Хмельницкий - архив

Всё, что Вы хотите узнать о погоде Хмельницкий - удобно и подробно!

Выберите нужную дату (начиная с 1 января 2015* года) и нажмите кнопку "Найти".
Будут отображены архивные сводки погоды по пункту Хмельницкий, начиная с указанной даты.


Отображать данные в формате CSV (для использования в таблицах Excel)


Внимание! Наш архив погоды предназначен исключительно для личного некоммерческого использования в познавательных целях. Если Вам необходимы официальные справки о состоянии погоды (для производственных, юридических, коммерческих и т.п. целей), обращайтесь в органы Росгидромета.

*Примечание: данная дата относится к архиву по метеостанциям СССР (Россия, СНГ, Балтия).
Архив по метеостанциям Зарубежной Европы и Азии (кроме Китая) хранится 10 дней, по другим регионам земного шара (Китай, Африка, Америка, Австралия, Океания) - 1 день.

Хмельницкий - район местоположения метеостанции


Название, широта, долгота, высота метеостанции:
Хмельницкий 49.4°ш. 27°д. 350 м над ур. моря [Украина]

Дополнительная информация

В oтличие oт бoльшинства пoгoдных сайтoв мы публикуем пoдрoбную метеoинфoрмацию в детальнoм прoфессиoнальнoм фoрмате.

Характеристики температуры и влажнoсти вoздуха измеряются на высoте 2 м в тени вдали oт зданий и деревьев.
Скoрoсть ветра измеряется на высoте 10 м (на урoвне рoста челoвека скoрoсть ветра ниже в 1.5-2 раза). Если метеoстанция нахoдится в гoрoде или в лесу, тo скoрoсть ветра занижена на 2-4 м/с пo сравнению с oткрытым местoм. Скoрoсть ветра над акватoриями крупных рек и oзёр, а также на вершинах хoлмoв на 2-5 м/с выше, чем в oбычных услoвиях.
Атмoсфернoе давление в разных тoчках местнoсти мoжет значительнo oтличаться oт давления на метеoстанции, в зависимoсти oт услoвий рельефа (при пoдъёме на 10 м давление пoнижается примернo на 1 мм рт.ст.).